Previsão horária em 1-e Yuldybaevo

Hoje, 30 Setembro, Quarta-feira

Tempo Temperatura Precipitação Vento Pressão Humidade
00:00 +9°C° 0 mm 2 m/s 752 mmHg 81%
01:00 +9°C° 0 mm 2 m/s 751 mmHg 82%
02:00 +8°C° 0 mm 2 m/s 752 mmHg 83%
03:00 +8°C° 0 mm 2 m/s 752 mmHg 83%
04:00 +8°C° 0 mm 2 m/s 752 mmHg 86%
05:00 +9°C° 0 mm 1 m/s 752 mmHg 86%
06:00 +9°C° 0 mm 1 m/s 752 mmHg 86%
07:00 +9°C° 0 mm 1 m/s 751 mmHg 86%
08:00 +10°C° 0 mm 2 m/s 751 mmHg 77%
09:00 +14°C° 0 mm 2 m/s 751 mmHg 68%
10:00 +16°C° 0 mm 2 m/s 751 mmHg 59%
11:00 +17°C° 0 mm 2 m/s 751 mmHg 55%
12:00 +20°C° 0 mm 1 m/s 751 mmHg 51%
13:00 +21°C° 0 mm 1 m/s 751 mmHg 48%
14:00 +21°C° 0 mm 1 m/s 751 mmHg 49%
15:00 +20°C° 0 mm 1 m/s 751 mmHg 51%
16:00 +20°C° 0 mm 1 m/s 751 mmHg 52%
17:00 +19°C° 0 mm 1 m/s 751 mmHg 59%
18:00 +16°C° 0 mm 1 m/s 750 mmHg 66%
19:00 +14°C° 0 mm 1 m/s 750 mmHg 72%
20:00 +13°C° 0 mm 1 m/s 750 mmHg 78%
21:00 +12°C° 0 mm 1 m/s 751 mmHg 83%
22:00 +11°C° 0 mm 1 m/s 751 mmHg 88%
23:00 +11°C° 0 mm 1 m/s 751 mmHg 90%

Amanhã, 1 Outubro, Quinta-feira

Tempo Temperatura Precipitação Vento Pressão Humidade
00:00 +11°C° 0 mm 1 m/s 751 mmHg 91%
01:00 +10°C° 0 mm 1 m/s 751 mmHg 92%
02:00 +10°C° 0 mm 1 m/s 751 mmHg 92%
03:00 +10°C° 0 mm 1 m/s 751 mmHg 91%
04:00 +9°C° 0 mm 1 m/s 751 mmHg 91%
05:00 +9°C° 0 mm 1 m/s 751 mmHg 91%
06:00 +9°C° 0 mm 1 m/s 751 mmHg 91%
07:00 +9°C° 0 mm 1 m/s 751 mmHg 91%
08:00 +11°C° 0 mm 1 m/s 751 mmHg 83%
09:00 +13°C° 0 mm 1 m/s 751 mmHg 75%
10:00 +15°C° 0 mm 2 m/s 751 mmHg 67%
11:00 +16°C° 0 mm 2 m/s 751 mmHg 62%
12:00 +17°C° 0 mm 2 m/s 751 mmHg 57%
13:00 +19°C° 0 mm 2 m/s 750 mmHg 52%
14:00 +18°C° 0 mm 2 m/s 750 mmHg 52%
15:00 +19°C° 0 mm 1 m/s 750 mmHg 53%
16:00 +19°C° 0 mm 1 m/s 750 mmHg 53%
17:00 +16°C° 0 mm 1 m/s 750 mmHg 61%
18:00 +15°C° 0 mm 1 m/s 750 mmHg 68%
19:00 +13°C° 0 mm 2 m/s 750 mmHg 76%
20:00 +12°C° 0 mm 1 m/s 750 mmHg 79%
21:00 +11°C° 0 mm 1 m/s 750 mmHg 82%
22:00 +11°C° 0 mm 1 m/s 750 mmHg 85%
23:00 +10°C° 0 mm 1 m/s 750 mmHg 86%

Depois de amanhã, 2 Outubro, Sexta-feira

Tempo Temperatura Precipitação Vento Pressão Humidade
00:00 +10°C° 0 mm 1 m/s 750 mmHg 87%
01:00 +10°C° 0 mm 1 m/s 750 mmHg 88%
02:00 +9°C° 0 mm 1 m/s 750 mmHg 89%
03:00 +9°C° 0 mm 1 m/s 750 mmHg 90%
04:00 +9°C° 0 mm 1 m/s 750 mmHg 90%
05:00 +9°C° 0 mm 1 m/s 750 mmHg 90%
06:00 +9°C° 0 mm 1 m/s 750 mmHg 90%
07:00 +9°C° 0 mm 1 m/s 750 mmHg 90%
08:00 +11°C° 0 mm 1 m/s 750 mmHg 81%
09:00 +13°C° 0 mm 1 m/s 750 mmHg 72%
10:00 +15°C° 0 mm 1 m/s 750 mmHg 63%
11:00 +16°C° 0 mm 1 m/s 750 mmHg 59%
12:00 +17°C° 0 mm 0 m/s 750 mmHg 54%
13:00 +18°C° 0 mm 0 m/s 749 mmHg 50%
14:00 +19°C° 0 mm 1 m/s 749 mmHg 52%
15:00 +19°C° 0 mm 1 m/s 749 mmHg 53%
16:00 +19°C° 0 mm 1 m/s 749 mmHg 55%
17:00 +18°C° 0 mm 1 m/s 749 mmHg 60%
18:00 +15°C° 0 mm 1 m/s 749 mmHg 65%
19:00 +14°C° 0 mm 1 m/s 748 mmHg 70%
20:00 +13°C° 0 mm 1 m/s 748 mmHg 74%
21:00 +13°C° 0 mm 1 m/s 748 mmHg 79%
22:00 +12°C° 0 mm 1 m/s 748 mmHg 83%
23:00 +11°C° 0 mm 1 m/s 748 mmHg 85%

3 Outubro, Sábado

Tempo Temperatura Precipitação Vento Pressão Humidade
00:00 +11°C° 0 mm 1 m/s 748 mmHg 87%
01:00 +9°C° 0 mm 0 m/s 748 mmHg 89%
02:00 +9°C° 0 mm 0 m/s 748 mmHg 89%
03:00 +9°C° 0 mm 0 m/s 748 mmHg 90%
04:00 +9°C° 0 mm 0 m/s 748 mmHg 90%
05:00 +9°C° 0 mm 0 m/s 748 mmHg 91%
06:00 +9°C° 0 mm 0 m/s 748 mmHg 91%
07:00 +9°C° 0 mm 0 m/s 748 mmHg 91%
08:00 +11°C° 0 mm 1 m/s 748 mmHg 83%
09:00 +13°C° 0 mm 1 m/s 747 mmHg 75%
10:00 +15°C° 0 mm 2 m/s 747 mmHg 67%
11:00 +16°C° 0 mm 2 m/s 747 mmHg 63%
12:00 +17°C° 0 mm 3 m/s 747 mmHg 60%
13:00 +18°C° 0 mm 3 m/s 747 mmHg 56%
14:00 +17°C° 0 mm 3 m/s 747 mmHg 57%
15:00 +17°C° 0 mm 3 m/s 747 mmHg 59%
16:00 +17°C° 0 mm 3 m/s 746 mmHg 60%
17:00 +14°C° 0 mm 3 m/s 746 mmHg 68%
18:00 +13°C° 0 mm 2 m/s 747 mmHg 76%
19:00 +12°C° 0 mm 2 m/s 747 mmHg 83%
20:00 +10°C° 0 mm 2 m/s 747 mmHg 86%
21:00 +11°C° 0 mm 1 m/s 747 mmHg 88%
22:00 +10°C° 0 mm 1 m/s 747 mmHg 91%
23:00 +10°C° 0 mm 1 m/s 747 mmHg 92%

4 Outubro, Domingo

Tempo Temperatura Precipitação Vento Pressão Humidade
00:00 +9°C° 0 mm 1 m/s 747 mmHg 93%
01:00 +9°C° 0 mm 1 m/s 747 mmHg 93%
02:00 +9°C° 0 mm 1 m/s 747 mmHg 94%
03:00 +8°C° 0 mm 1 m/s 747 mmHg 94%
04:00 +8°C° 0 mm 1 m/s 747 mmHg 94%
05:00 +8°C° 0 mm 1 m/s 747 mmHg 94%
06:00 +8°C° 0 mm 1 m/s 747 mmHg 93%
07:00 +8°C° 0 mm 1 m/s 748 mmHg 93%
08:00 +10°C° 0 mm 1 m/s 748 mmHg 88%
09:00 +11°C° 0 mm 1 m/s 748 mmHg 83%
10:00 +12°C° 0 mm 1 m/s 748 mmHg 78%
11:00 +12°C° 0.1 mm 2 m/s 748 mmHg 79%
12:00 +10°C° 0.1 mm 2 m/s 748 mmHg 79%
13:00 +10°C° 0.1 mm 3 m/s 748 mmHg 80%
14:00 +10°C° 0.1 mm 3 m/s 748 mmHg 79%
15:00 +9°C° 0.1 mm 3 m/s 748 mmHg 79%
16:00 +9°C° 0.1 mm 3 m/s 748 mmHg 79%
17:00 +8°C° 0 mm 3 m/s 748 mmHg 79%
18:00 +8°C° 0 mm 3 m/s 749 mmHg 80%
19:00 +7°C° 0 mm 3 m/s 749 mmHg 80%
20:00 +7°C° 0 mm 3 m/s 749 mmHg 80%
21:00 +7°C° 0 mm 3 m/s 749 mmHg 79%
22:00 +7°C° 0 mm 2 m/s 750 mmHg 78%
23:00 +5°C° 0 mm 3 m/s 750 mmHg 77%

5 Outubro, Segunda-feira

Tempo Temperatura Precipitação Vento Pressão Humidade
00:00 +4°C° 0 mm 3 m/s 750 mmHg 76%
01:00 +4°C° 0 mm 3 m/s 750 mmHg 76%
02:00 +4°C° 0 mm 2 m/s 750 mmHg 76%
03:00 +3°C° 0 mm 2 m/s 750 mmHg 77%
04:00 +2°C° 0 mm 2 m/s 751 mmHg 78%
05:00 +2°C° 0 mm 2 m/s 751 mmHg 77%
06:00 +2°C° 0 mm 2 m/s 751 mmHg 76%
07:00 +2°C° 0 mm 2 m/s 751 mmHg 75%
08:00 +4°C° 0 mm 2 m/s 751 mmHg 68%
09:00 +7°C° 0 mm 1 m/s 751 mmHg 60%
10:00 +9°C° 0 mm 1 m/s 751 mmHg 53%
11:00 +10°C° 0 mm 1 m/s 751 mmHg 50%
12:00 +11°C° 0 mm 1 m/s 751 mmHg 47%
13:00 +12°C° 0 mm 1 m/s 751 mmHg 44%
14:00 +12°C° 0 mm 1 m/s 751 mmHg 44%
15:00 +12°C° 0 mm 1 m/s 751 mmHg 44%
16:00 +12°C° 0 mm 1 m/s 751 mmHg 45%
17:00 +10°C° 0 mm 1 m/s 750 mmHg 52%
18:00 +9°C° 0 mm 1 m/s 750 mmHg 59%
19:00 +7°C° 0 mm 1 m/s 750 mmHg 66%
20:00 +6°C° 0 mm 1 m/s 750 mmHg 70%
21:00 +6°C° 0 mm 1 m/s 750 mmHg 74%
22:00 +4°C° 0 mm 0 m/s 750 mmHg 78%
23:00 +4°C° 0 mm 0 m/s 750 mmHg 80%
Mostrar mais